User: anonymous   Login
Location: ??????
(55.0357°N, 38.6195°E)
Time: 21:07:24
(UTC+00:00)
Language:

Cosmos 1538 Rocket - Orbit

View from above orbital plane
View from above orbital plane
View from above satellite
View from above satellite

Ground track
Ground track

The orbit data is extracted from the following two-line orbital elements,

1 14760U 84019B   24165.59909289  .00000497  00000-0  17748-3 0  9999
2 14760  74.0425 116.6194 0026407  68.3655 292.0308 14.36525497109899
Epoch (UTC): 13 June 2024 14:22:41
Eccentricity: 0.0026407
inclination: 74.0425°
perigee height: 751 km
apogee height: 789 km
right ascension of ascending node: 116.6194°
argument of perigee: 68.3655°
revolutions per day: 14.36525497
mean anomaly at epoch: 292.0308°
orbit number at epoch: 10989

The dashed part of the orbit path shows where the satellite is in the earth's shadow,  

DLR